Temperature
26 24 24 25 25 25 25 24 24 24 25 24 23 23 22 22 22 22 22 22 22 22 22 22 22 21 21 21 20 20 20 19 19 19 19 18 18 18 18 18 18 18 18 18
24 25 26 26 25 25 25 25 24 25 25 24 23 23 22 22 22 23 22 22 22 22 22 22 22 21 21 21 20 20 20 20 19 19 19 19 18 18 18 18 18 18 18 18
25 25 26 26 26 26 25 25 25 25 24 24 24 23 22 22 22 23 23 23 23 23 23 22 22 22 21 21 21 20 20 20 19 19 19 18 18 18 18 18 18 18 18 18
25 25 26 26 26 26 25 26 25 25 23 22 23 22 22 21 21 22 22 23 23 23 23 23 22 22 22 21 21 20 20 20 19 19 19 19 18 18 18 18 18 18 18 18
25 26 26 26 27 26 26 25 24 24 22 22 22 22 22 21 21 21 22 23 23 23 23 23 23 23 22 22 21 21 20 20 20 19 19 19 19 18 18 18 18 18 18 18
25 26 26 26 26 26 25 23 22 20 20 22 22 22 22 20 21 22 22 23 23 24 24 23 23 23 22 22 21 21 20 20 20 19 19 19 19 18 18 18 18 18 18 18
25 26 26 26 26 25 24 22 21 22 21 21 21 22 21 22 22 22 23 24 24 24 24 23 23 23 22 22 21 21 21 20 20 19 19 19 19 18 18 18 18 18 18 18
24 24 25 26 25 24 23 22 21 22 21 21 21 21 22 23 23 24 24 25 24 24 24 24 24 23 23 22 22 21 21 20 20 20 19 19 19 18 18 18 18 18 18 18
22 23 25 26 25 24 23 21 21 19 20 21 21 21 22 23 23 23 24 24 24 24 25 24 24 24 23 23 22 22 21 21 20 20 20 19 19 19 18 18 18 18 17 17
22 24 25 25 25 24 23 19 18 19 20 22 22 22 22 23 23 22 22 23 24 25 25 25 24 24 23 23 22 22 21 21 21 20 20 19 19 19 18 18 18 18 17 17
22 23 24 24 25 24 22 21 18 17 19 20 22 22 22 22 22 22 22 24 24 25 25 25 25 24 24 23 22 22 21 21 21 20 20 19 19 19 18 18 18 17 17 17
20 19 21 23 23 23 23 21 19 21 20 18 20 21 23 21 22 22 23 24 24 25 25 25 24 24 23 23 22 22 22 21 21 20 20 19 19 19 18 18 18 17 17 17
20 19 20 22 22 23 23 21 20 18 17 17 20 23 22 21 22 23 23 24 24 24 24 24 24 24 23 23 22 22 22 21 21 20 20 19 19 19 18 18 17 17 17 17
19 18 20 21 21 21 23 22 20 19 19 18 20 22 22 22 21 22 23 24 24 24 24 24 24 24 23 23 22 22 22 21 21 20 20 19 19 19 18 18 17 17 16 16
19 19 20 20 21 22 23 22 21 21 20 20 21 21 22 21 21 23 23 23 23 23 23 24 24 23 23 23 22 22 22 21 21 20 20 19 19 18 18 18 17 17 16 16
16 18 20 21 21 22 22 22 22 22 21 21 22 21 21 21 22 22 23 23 23 23 24 24 24 23 23 23 22 22 22 21 21 20 20 19 19 18 18 17 17 16 16 16
15 17 18 19 20 22 22 21 21 22 21 21 21 21 21 21 20 22 23 23 23 24 24 24 24 24 24 23 23 22 22 21 21 20 20 19 19 18 18 17 17 16 16 16
15 15 15 17 20 21 20 20 21 21 21 20 20 20 20 20 22 23 23 24 24 24 24 24 24 24 24 23 23 22 22 21 21 20 20 19 18 18 17 17 17 16 16 15
14 15 14 15 18 19 20 20 20 20 20 20 19 19 20 21 21 22 23 24 24 25 24 24 24 24 23 23 22 22 21 21 20 20 19 19 18 18 17 17 17 16 16 15
13 13 14 15 18 19 20 20 20 20 20 19 19 19 19 20 19 20 23 24 24 24 24 24 23 23 23 22 22 21 21 20 20 20 19 19 18 18 17 17 16 16 15 15
15 14 14 15 17 17 18 18 20 20 20 19 19 19 19 19 20 22 23 23 24 24 23 23 23 22 22 22 21 21 21 20 20 19 19 18 18 17 16 16 16 15 15 15
14 14 14 14 16 17 18 18 18 18 19 19 19 20 20 20 21 21 22 23 23 23 23 23 22 22 21 21 21 21 21 20 20 19 18 18 17 17 16 16 15 15 15 14
13 13 13 14 15 16 17 17 18 19 19 19 19 20 20 20 20 21 22 22 22 22 22 22 22 22 21 21 21 21 20 20 19 19 18 18 17 16 16 16 15 15 15 14
13 12 12 13 14 15 17 18 18 19 19 19 19 19 20 20 20 21 21 21 21 21 21 21 21 21 21 20 20 20 20 19 19 18 18 17 17 16 16 15 15 15 15 14
13 12 12 13 14 15 17 17 18 18 18 18 19 19 19 19 20 20 20 20 20 20 20 20 20 21 20 20 19 19 19 19 18 18 17 17 16 16 16 16 15 15 15 14
11 12 12 13 14 14 16 17 17 18 18 18 18 18 19 19 19 19 19 20 20 20 19 19 19 20 20 19 19 18 18 18 18 17 17 17 16 16 16 15 15 15 14 14
Wind_Speed
4 5 3 6 7 6 7 6 4 4 4 6 5 5 6 9 9 9 9 9 9 9 7 5 6 6 6 5 5 5 5 4 4 2 2 2 1 0 0 1 2 3 3 4
6 1 5 5 5 6 6 4 2 0 2 5 3 3 4 9 11 11 12 12 11 8 6 6 6 6 7 7 6 5 5 5 4 3 2 2 2 1 1 0 1 2 2 2
5 5 3 5 5 4 2 6 5 4 3 4 3 4 3 5 6 7 8 10 10 12 11 9 8 8 7 8 8 7 6 5 4 4 3 2 2 1 1 1 1 1 1 1
3 4 3 4 5 6 3 5 6 6 6 0 2 3 6 5 6 9 10 10 12 11 10 9 9 9 9 9 7 6 6 5 4 5 4 4 3 2 2 1 0 1 1 0
4 3 3 4 5 7 5 4 5 5 6 3 2 2 8 1 6 11 13 13 13 12 12 12 11 11 9 8 7 6 5 4 4 4 5 4 3 2 1 1 0 1 1 1
4 3 4 5 2 5 7 8 8 7 5 1 3 4 7 5 9 8 11 13 13 12 11 11 9 8 7 6 6 5 5 4 4 5 4 5 5 4 3 1 1 0 1 1
2 3 2 3 5 3 7 7 4 5 3 5 2 3 9 8 9 10 10 12 12 11 10 10 10 9 9 8 7 6 6 5 5 5 5 5 5 4 4 3 2 1 0 1
4 5 4 4 6 7 6 9 9 6 5 5 1 6 8 7 7 7 7 9 10 10 11 11 12 11 10 10 9 8 7 6 5 5 4 4 4 3 2 2 2 2 1 1
8 6 4 3 3 10 8 4 7 8 4 1 5 7 9 4 2 2 6 8 10 11 12 12 12 12 11 11 10 9 9 7 6 5 4 4 4 4 3 3 2 1 1 1
8 4 3 2 5 5 6 10 7 7 6 3 5 5 6 7 5 4 6 9 9 9 10 10 11 12 11 10 9 8 8 8 6 6 5 4 4 3 3 3 2 2 2 2
5 5 3 2 4 6 5 6 6 6 6 7 3 7 7 9 9 8 9 9 10 11 11 11 10 10 10 9 8 8 8 7 6 6 5 5 4 3 3 3 2 2 3 3
4 5 2 5 3 3 5 8 8 6 4 5 5 8 6 8 8 7 8 7 7 8 9 9 9 10 10 10 9 9 8 8 7 7 6 5 4 4 4 3 3 3 4 3
6 6 3 4 5 2 3 4 5 7 6 6 5 8 4 2 3 5 6 5 5 6 7 7 8 9 10 10 10 10 9 9 8 7 7 6 5 5 4 3 3 4 4 4
6 5 7 9 8 5 3 3 5 7 5 6 8 8 7 5 5 5 4 5 6 6 7 8 8 8 9 9 9 9 9 9 9 8 8 7 6 5 5 5 4 4 5 5
6 4 3 4 3 4 4 5 6 6 8 9 9 8 10 8 8 6 4 5 6 7 8 9 9 9 9 9 9 9 9 9 9 9 8 7 6 5 5 5 5 5 5 5
4 5 3 0 1 3 2 3 5 5 5 5 4 7 7 5 2 3 5 7 8 9 9 9 9 10 10 11 10 10 10 10 10 10 9 7 6 6 5 5 5 6 5 5
3 5 4 2 3 2 2 5 5 3 3 5 6 8 5 3 4 6 7 8 10 10 10 10 10 11 11 11 11 12 11 10 10 10 9 8 8 7 6 6 6 5 5 5
5 5 4 3 3 5 7 3 3 4 3 3 4 5 5 6 5 3 3 7 7 7 8 9 9 9 9 9 9 9 9 10 10 10 9 8 8 7 7 6 6 5 4 5
4 7 5 4 4 4 5 1 1 2 3 2 3 3 3 2 2 3 2 4 7 7 7 7 8 9 9 10 10 11 10 10 10 10 10 9 9 9 8 7 6 5 5 4
5 5 6 5 5 7 7 4 3 3 3 3 1 2 1 3 1 5 4 3 3 3 4 5 6 7 10 10 11 11 11 11 11 10 10 10 10 9 9 8 6 4 4 4
4 4 4 5 4 6 6 5 1 5 6 4 2 2 2 3 5 5 3 2 2 3 4 6 8 8 8 10 11 12 11 11 10 10 10 9 9 9 8 7 6 6 5 5
5 4 4 5 4 6 3 1 3 5 3 2 2 2 2 3 3 3 1 0 1 2 4 7 7 7 7 9 10 10 11 10 10 10 10 10 9 9 8 8 7 7 7 6
4 5 5 6 6 5 2 3 3 3 2 3 2 3 2 2 2 1 0 1 2 2 4 6 7 7 6 8 9 10 9 10 11 11 10 9 9 8 8 9 8 7 6 5
1 2 2 2 4 4 4 3 2 1 2 3 2 2 1 1 1 0 1 2 2 2 4 5 7 7 6 6 7 8 9 11 11 11 10 9 10 9 8 7 7 7 7 6
3 2 2 2 4 4 4 2 2 2 2 2 2 2 1 0 1 0 0 1 2 2 2 4 6 7 6 6 6 6 9 11 11 11 10 9 8 8 7 6 6 7 6 7
4 5 5 6 6 4 4 4 2 1 1 1 1 3 3 1 0 1 0 1 2 3 3 3 4 5 5 6 6 6 8 10 11 9 9 8 7 7 7 6 4 2 3 6
Wind_Direction
42 80 158 202 185 172 155 159 197 228 183 157 191 215 203 190 193 198 200 199 204 212 210 187 179 169 160 165 176 181 171 167 148 136 143 147 181 217 233 240 237 227 220 205
47 240 221 183 148 129 138 148 175 47 138 148 177 240 224 199 204 203 200 201 202 206 198 188 178 172 174 180 190 192 190 181 173 160 157 157 153 172 192 234 263 232 220 211
175 230 178 134 136 132 167 175 179 162 92 62 91 328 246 228 218 216 213 206 202 202 198 193 187 187 184 191 197 200 196 189 181 163 129 102 77 56 56 30 312 303 246 212
213 242 152 136 165 148 211 203 161 140 120 31 117 257 275 230 226 224 219 209 207 205 198 193 190 191 195 199 196 194 188 183 177 166 163 165 171 184 206 199 223 341 350 292
229 202 159 176 197 161 177 113 112 121 119 76 43 163 285 220 232 233 222 213 208 202 196 194 195 197 195 189 185 185 174 175 171 167 167 162 166 175 157 119 64 358 356 357
231 239 191 192 149 138 120 78 59 54 73 88 229 176 273 233 222 230 217 210 205 197 195 193 190 182 181 175 173 171 168 178 174 167 163 164 167 168 158 160 174 302 348 347
314 302 246 145 105 68 98 96 49 18 15 250 247 201 248 247 230 220 212 206 198 187 183 184 181 183 181 178 178 174 173 182 176 165 168 175 176 175 183 187 186 188 271 331
174 265 236 180 164 163 157 137 153 179 210 264 288 234 254 262 260 231 207 191 180 178 179 187 190 187 186 184 181 175 175 178 172 168 172 168 165 168 177 178 167 174 191 244
173 235 281 227 168 135 132 149 153 131 146 191 275 283 300 304 308 197 178 173 178 182 184 189 189 186 184 184 184 178 174 175 176 174 164 158 157 155 158 158 151 149 146 117
156 205 281 301 85 42 133 140 106 120 143 222 288 280 256 269 248 218 193 191 191 183 183 187 188 186 184 185 181 173 173 177 176 167 165 162 156 154 149 136 131 125 110 94
133 154 302 44 153 164 107 96 104 112 145 156 228 267 230 226 223 213 213 205 192 186 186 188 188 182 177 173 169 169 169 164 163 164 159 152 149 146 135 131 131 121 106 103
133 126 211 259 279 196 148 154 146 148 186 166 174 261 267 232 229 217 222 212 195 187 182 184 180 170 169 171 172 172 170 169 170 164 156 154 147 140 135 134 128 117 107 97
131 117 96 348 348 14 101 127 132 121 118 150 170 259 306 301 247 228 220 203 182 176 176 174 168 169 173 174 175 175 173 172 165 155 151 147 146 144 143 138 125 116 111 101
119 113 161 191 208 193 165 149 146 127 142 186 215 247 292 287 262 254 224 192 171 172 177 177 175 175 176 177 176 176 173 167 160 154 153 154 161 160 150 135 123 114 110 104
108 136 174 212 214 186 180 184 180 175 176 181 222 225 253 254 247 238 207 180 166 173 180 184 184 181 175 174 175 175 170 164 159 157 160 166 164 155 139 129 122 117 109 107
77 132 128 67 287 193 178 194 188 197 182 202 215 246 259 271 239 224 194 183 188 192 192 189 185 182 180 178 178 175 171 166 160 160 164 161 153 148 140 134 127 116 107 102
85 117 116 216 305 80 229 218 196 191 191 175 205 240 275 269 227 218 204 194 199 198 194 190 190 189 185 181 177 176 170 160 161 162 162 161 159 155 150 144 133 126 120 110
134 117 125 139 107 206 238 259 193 172 199 214 235 258 254 247 244 228 204 201 210 204 198 196 189 185 182 173 170 165 158 161 162 159 159 160 159 153 147 143 141 134 125 119
149 135 121 129 166 248 288 283 139 169 251 236 233 275 292 341 33 324 263 214 213 207 201 200 188 177 167 164 160 154 160 163 161 164 164 163 161 156 153 151 149 143 134 126
67 99 120 131 155 212 238 273 280 160 256 282 228 243 222 81 76 272 294 249 219 188 174 173 165 154 158 159 150 153 164 166 173 172 170 164 161 160 162 161 154 143 140 138
61 62 121 149 185 247 260 288 37 151 243 284 263 244 197 192 219 261 293 282 206 161 159 157 155 160 162 157 154 160 169 181 177 163 161 159 158 161 163 158 152 144 137 131
162 148 167 147 171 242 283 58 152 219 265 274 266 260 243 234 251 264 272 333 91 105 127 141 147 155 156 157 160 167 179 175 160 158 163 165 163 163 167 161 155 150 146 143
182 186 182 185 207 245 269 229 249 222 247 274 271 278 226 212 229 243 228 89 95 120 137 142 143 143 151 160 164 175 176 160 158 163 168 166 165 165 163 163 161 158 157 159
259 158 154 249 271 279 298 300 300 255 247 273 274 284 247 222 247 195 113 104 109 133 145 144 142 147 159 167 172 175 165 160 161 167 169 168 166 166 167 168 168 169 173 176
233 162 150 254 276 317 324 319 315 352 12 20 8 357 331 111 20 334 170 148 136 117 118 140 150 156 160 163 167 163 163 161 164 168 169 171 173 169 172 169 174 179 187 188
215 186 181 223 229 207 258 279 292 18 348 350 21 355 339 301 266 58 69 138 137 134 134 142 148 152 160 166 167 167 165 165 162 165 169 176 176 173 171 167 157 132 169 179
Height
1497 1504 1511 1508 1507 1509 1514 1522 1526 1522 1516 1520 1525 1526 1524 1524 1527 1529 1530 1532 1534 1535 1538 1540 1542 1544 1546 1547 1548 1549 1550 1551 1552 1553 1554 1555 1555 1556 1556 1557 1557 1557 1557 1558
1504 1507 1501 1500 1503 1507 1513 1521 1523 1519 1516 1520 1525 1526 1522 1523 1523 1524 1526 1529 1531 1534 1536 1538 1540 1542 1544 1545 1547 1548 1549 1550 1552 1553 1553 1554 1554 1555 1555 1556 1556 1556 1557 1557
1505 1502 1498 1500 1505 1510 1514 1518 1520 1521 1520 1521 1526 1530 1525 1522 1522 1524 1525 1526 1528 1531 1533 1536 1538 1540 1542 1544 1546 1547 1548 1549 1551 1552 1552 1553 1553 1554 1554 1555 1555 1555 1556 1556
1500 1497 1498 1501 1505 1508 1517 1509 1512 1518 1528 1537 1532 1547 1529 1523 1522 1521 1521 1523 1525 1527 1530 1533 1536 1538 1540 1542 1545 1546 1547 1548 1549 1550 1551 1551 1552 1553 1553 1554 1554 1555 1555 1555
1500 1496 1497 1502 1501 1502 1508 1506 1512 1519 1529 1539 1537 1545 1535 1524 1524 1518 1516 1518 1520 1523 1526 1529 1533 1535 1538 1541 1543 1545 1546 1547 1548 1549 1549 1550 1551 1551 1552 1552 1553 1553 1554 1554
1495 1493 1493 1495 1496 1499 1504 1512 1521 1530 1538 1551 1540 1545 1540 1526 1517 1511 1510 1512 1515 1519 1523 1526 1530 1534 1536 1539 1541 1543 1544 1545 1546 1547 1548 1549 1549 1550 1550 1551 1551 1552 1552 1552
1500 1494 1491 1492 1499 1502 1506 1525 1548 1552 1560 1555 1539 1541 1535 1511 1506 1505 1505 1508 1511 1516 1520 1522 1527 1530 1533 1536 1538 1540 1542 1543 1544 1545 1546 1547 1548 1549 1549 1550 1550 1551 1551 1551
1510 1512 1494 1491 1496 1505 1510 1520 1546 1558 1562 1554 1541 1541 1521 1504 1501 1500 1502 1505 1509 1512 1516 1519 1523 1527 1530 1533 1536 1538 1539 1541 1543 1544 1545 1546 1547 1547 1548 1548 1549 1549 1549 1549
1511 1510 1492 1489 1490 1496 1511 1519 1521 1541 1548 1553 1547 1533 1514 1501 1500 1499 1500 1503 1506 1509 1513 1516 1520 1523 1527 1530 1533 1535 1537 1540 1541 1543 1544 1545 1546 1546 1547 1547 1547 1548 1548 1548
1498 1505 1494 1490 1490 1496 1500 1512 1529 1542 1556 1557 1545 1536 1527 1507 1502 1499 1499 1500 1503 1507 1510 1514 1517 1521 1524 1528 1531 1534 1536 1538 1540 1542 1543 1545 1545 1546 1546 1547 1547 1547 1547 1547
1493 1504 1501 1495 1497 1502 1507 1515 1526 1538 1540 1554 1554 1539 1506 1502 1497 1497 1496 1497 1499 1503 1507 1510 1514 1518 1522 1525 1529 1532 1535 1537 1539 1541 1543 1544 1545 1546 1546 1546 1546 1546 1546 1546
1493 1505 1512 1503 1494 1493 1496 1506 1518 1531 1539 1544 1546 1534 1495 1494 1493 1494 1494 1496 1499 1502 1505 1509 1512 1516 1519 1523 1526 1530 1533 1536 1538 1540 1542 1543 1544 1545 1545 1546 1546 1546 1546 1545
1492 1506 1519 1515 1510 1500 1500 1504 1509 1520 1534 1545 1544 1526 1494 1492 1492 1492 1494 1496 1498 1501 1504 1507 1510 1513 1517 1521 1524 1527 1531 1534 1536 1539 1541 1542 1543 1544 1544 1545 1545 1545 1545 1545
1487 1503 1512 1519 1514 1504 1503 1504 1508 1514 1530 1536 1530 1516 1499 1495 1493 1491 1492 1494 1497 1500 1502 1505 1508 1511 1515 1519 1522 1526 1529 1532 1535 1537 1539 1541 1542 1543 1543 1544 1544 1545 1544 1544
1486 1501 1500 1500 1498 1497 1498 1500 1503 1506 1511 1519 1514 1511 1499 1493 1491 1490 1491 1493 1495 1498 1500 1503 1506 1509 1513 1517 1520 1524 1527 1530 1532 1535 1538 1539 1541 1542 1542 1543 1543 1543 1543 1543
1490 1498 1499 1500 1496 1496 1497 1497 1499 1500 1502 1504 1503 1502 1490 1489 1489 1489 1490 1491 1493 1494 1497 1500 1504 1507 1510 1514 1518 1521 1524 1528 1530 1533 1535 1537 1539 1540 1541 1542 1542 1542 1542 1542
1495 1499 1507 1510 1501 1497 1505 1498 1497 1497 1496 1498 1502 1496 1488 1488 1487 1487 1487 1488 1489 1491 1494 1497 1500 1504 1507 1511 1515 1518 1522 1525 1528 1530 1533 1535 1537 1538 1539 1540 1541 1540 1541 1540
1495 1502 1510 1513 1507 1515 1503 1490 1490 1492 1493 1492 1491 1488 1487 1486 1485 1485 1486 1487 1488 1489 1492 1494 1498 1501 1504 1508 1513 1517 1521 1524 1526 1528 1530 1533 1535 1536 1537 1538 1539 1539 1540 1540
1490 1498 1511 1518 1516 1509 1497 1490 1490 1493 1493 1489 1488 1486 1485 1484 1484 1484 1484 1485 1486 1488 1490 1493 1495 1498 1502 1505 1510 1514 1518 1521 1524 1526 1528 1530 1533 1534 1535 1536 1537 1538 1539 1540
1492 1494 1507 1515 1514 1517 1499 1487 1486 1490 1495 1487 1485 1485 1485 1485 1490 1485 1483 1483 1484 1486 1488 1491 1494 1497 1499 1502 1506 1511 1514 1517 1520 1523 1526 1528 1530 1532 1534 1535 1536 1538 1539 1539
1499 1503 1507 1511 1511 1505 1490 1485 1485 1499 1496 1485 1484 1484 1484 1485 1485 1484 1482 1482 1483 1484 1486 1488 1491 1494 1497 1500 1503 1506 1510 1514 1518 1521 1524 1526 1528 1530 1531 1533 1535 1536 1538 1539
1500 1504 1508 1510 1511 1506 1486 1485 1489 1490 1484 1483 1483 1482 1483 1482 1482 1481 1481 1481 1481 1482 1484 1486 1488 1492 1495 1498 1502 1505 1507 1511 1515 1519 1521 1523 1525 1526 1528 1530 1533 1534 1536 1537
1496 1496 1497 1499 1498 1488 1485 1485 1484 1483 1483 1482 1482 1481 1481 1480 1480 1479 1479 1479 1480 1481 1482 1484 1487 1489 1492 1495 1499 1502 1505 1509 1512 1515 1518 1519 1521 1523 1526 1528 1530 1532 1534 1535
1491 1491 1493 1493 1488 1485 1483 1482 1482 1482 1481 1481 1481 1481 1480 1479 1478 1478 1478 1478 1479 1481 1482 1483 1485 1487 1490 1493 1496 1500 1502 1505 1508 1511 1513 1515 1517 1520 1523 1525 1528 1530 1531 1533
1489 1489 1491 1491 1486 1483 1482 1481 1481 1480 1480 1480 1480 1480 1480 1479 1478 1478 1477 1478 1478 1480 1481 1483 1483 1485 1487 1491 1494 1497 1499 1502 1505 1507 1510 1512 1515 1517 1519 1522 1525 1527 1529 1531
1486 1487 1489 1488 1483 1483 1482 1481 1480 1479 1479 1479 1479 1479 1479 1479 1478 1477 1478 1478 1479 1480 1481 1482 1483 1484 1486 1489 1492 1494 1497 1499 1501 1503 1506 1509 1512 1515 1517 1520 1523 1525 1527 1528